Showing default

PROBA-3 CSC, 62256

Orbit data source: Space-Track

PROBA-3 CSC, 62256 is a payload satellite owned by ESA (ESA) in HEO that was launched on Thu, 05 Dec 2024 UTC via a PSLV-XL launch vehicle from the Sirharikota (SRI). Payload-class satellites include a variety of spacecraft equipped with specific instruments for various scientific and technological missions. These include communications satellites like Starlink; space stations such as the ISS; scientific satellites like the Hubble; Earth observation satellites from companies like Planet Labs, Umbra, and HawkEye 360; GPS; miniature CubeSats for education and research; and military/defense satellites.

Loading next visibility...
Identifier
62256, 2024-233A
Orbit
HEO
Country
Flag of ESAESA
Related business
Manufacturer
Airbus/Toulouse
Mission
Operational Civil Tech/Ast
Bus & Motor
MYRIADE, AOCS
Mass
540 kg wet, 300 kg dry
Launch date (UTC)
2024-12-05 (9 months ago)
Launch vehicle
PSLV-XL
Launch site
Sirharikota (SRI)
Object type
Payload
Rocket body
Debris
Shape & HBR
Box + 1 Pan, 1.5 m
Radar Cross Section
4.378 m², Large (>1 m²)

Expand to show TLE details & history
Last TLE update: 6 days ago

TLE from 6 days ago
0 PROBA-3 CSC
1 62256U 24233A   25246.65251489 -.00000276  00000-0  79506-3 0  9990
2 62256  59.4110 121.9104 8049430 196.9283  96.8535  1.22075195  3323
Epoch: 2025-09-03T15:39Z
TLE epoch observation values (Epoch: 2025-09-03T15:39:37.286Z)
Latitude
0.00001°
Longitude
-95.95307°
Altitude
50,215.685 km
Speed
1.819 km/s
True Right ascension
08h 07m 54s
True Declination
0° 00' 00"
Sunlit
Object was in daylight at epoch
Visualization orbit readout
Latitude
Unknown
Longitude
Unknown
Altitude
Unknown
Speed
Unknown
Apparent Right ascension
Unknown
Apparent Declination
Unknown
Sunlit
N/A
Visualization observer readout
Local Sidereal Time
14:59:23
Azimuth
Unknown
Elevation
Unknown
Doppler factor
Unknown
Orbital elements
Apogee altitude
60,370.107 km
Perigee altitude
835.228 km
Semi-major axis
36,980.804 km
Eccentricity
0.80494
Inclination
59.411°
RAAN
121.9104°
Arg. of periapsis
196.9283°
True anomaly
163.12665°
Mean anomaly
96.8535°
Eccentric anomaly
131.43165°
Mean motion
0.3052 °/min
Orbital period
1,179.57 mins
BSTAR
0.00079506
Loading maneuver chart data...
Computing Atmospheric mass density...
Loading historical data...
Loading historical data...
Loading historical data...
Loading historical data...
Loading historical data...
Loading historical data...
Loading historical data...
Other satellites on launch #233 in the year 2024 (2024-12-05 UTC)

Documentation

Showing up to 5 results
|